• In Portugal
  • List of Countries
  • For 7 days
  • Water Temperature
  • Satellite Maps
  • Weather Map
  • Weather Widgets
  • user-avatar
    Login

    Hourly Weather Dobrich

    Today, 23 September, Sunday

    Time Temperature Precipitation Wind Pressure Humidity
    00:00 +19°C° 0 mm 2 mps 740 mmHg 68%
    01:00 +19°C° 0 mm 3 mps 741 mmHg 66%
    02:00 +19°C° 0 mm 3 mps 741 mmHg 64%
    03:00 +19°C° 0 mm 3 mps 741 mmHg 61%
    04:00 +18°C° 0 mm 3 mps 741 mmHg 59%
    05:00 +18°C° 0 mm 3 mps 741 mmHg 57%
    06:00 +18°C° 0 mm 3 mps 741 mmHg 57%
    07:00 +19°C° 0 mm 3 mps 742 mmHg 57%
    08:00 +19°C° 0 mm 3 mps 742 mmHg 57%
    09:00 +20°C° 0 mm 3 mps 742 mmHg 54%
    10:00 +22°C° 0 mm 3 mps 743 mmHg 51%
    11:00 +24°C° 0 mm 3 mps 743 mmHg 48%
    12:00 +25°C° 0 mm 3 mps 743 mmHg 46%
    13:00 +26°C° 0 mm 2 mps 743 mmHg 44%
    14:00 +27°C° 0 mm 2 mps 743 mmHg 42%
    15:00 +26°C° 0 mm 3 mps 742 mmHg 45%
    16:00 +26°C° 0 mm 3 mps 742 mmHg 49%
    17:00 +25°C° 0 mm 3 mps 742 mmHg 52%
    18:00 +24°C° 0 mm 3 mps 742 mmHg 62%
    19:00 +21°C° 0 mm 3 mps 742 mmHg 71%
    20:00 +19°C° 0 mm 3 mps 742 mmHg 80%
    21:00 +19°C° 0 mm 3 mps 742 mmHg 83%
    22:00 +19°C° 0 mm 3 mps 742 mmHg 86%
    23:00 +19°C° 0 mm 3 mps 742 mmHg 89%

    Tomorrow, 24 September, Monday

    Time Temperature Precipitation Wind Pressure Humidity
    00:00 +19°C° 0 mm 3 mps 741 mmHg 90%
    01:00 +19°C° 0 mm 4 mps 741 mmHg 91%
    02:00 +19°C° 0 mm 4 mps 741 mmHg 93%
    03:00 +19°C° 0 mm 4 mps 740 mmHg 93%
    04:00 +19°C° 0 mm 4 mps 739 mmHg 93%
    05:00 +19°C° 0 mm 4 mps 739 mmHg 93%
    06:00 +20°C° 0 mm 4 mps 739 mmHg 85%
    07:00 +21°C° 0 mm 5 mps 738 mmHg 77%
    08:00 +22°C° 0 mm 6 mps 738 mmHg 69%
    09:00 +26°C° 0 mm 6 mps 738 mmHg 59%
    10:00 +28°C° 0 mm 6 mps 737 mmHg 48%
    11:00 +30°C° 0 mm 7 mps 737 mmHg 38%
    12:00 +32°C° 0 mm 7 mps 737 mmHg 35%
    13:00 +33°C° 0 mm 6 mps 736 mmHg 32%
    14:00 +34°C° 0 mm 6 mps 735 mmHg 28%
    15:00 +33°C° 0 mm 6 mps 735 mmHg 31%
    16:00 +32°C° 0 mm 5 mps 735 mmHg 33%
    17:00 +30°C° 0 mm 5 mps 736 mmHg 35%
    18:00 +28°C° 0 mm 6 mps 737 mmHg 38%
    19:00 +24°C° 0 mm 7 mps 738 mmHg 42%
    20:00 +22°C° 0 mm 9 mps 739 mmHg 46%
    21:00 +20°C° 0 mm 8 mps 740 mmHg 52%
    22:00 +17°C° 0 mm 8 mps 741 mmHg 57%
    23:00 +15°C° 0 mm 8 mps 742 mmHg 63%

    Day after tomorrow, 25 September, Tuesday

    Time Temperature Precipitation Wind Pressure Humidity
    00:00 +15°C° 0 mm 7 mps 742 mmHg 62%
    01:00 +14°C° 0 mm 6 mps 742 mmHg 60%
    02:00 +14°C° 0 mm 5 mps 743 mmHg 59%
    03:00 +14°C° 0 mm 5 mps 743 mmHg 57%
    04:00 +14°C° 0 mm 4 mps 743 mmHg 55%
    05:00 +14°C° 0 mm 3 mps 744 mmHg 52%
    06:00 +14°C° 0 mm 3 mps 744 mmHg 52%
    07:00 +14°C° 0 mm 3 mps 745 mmHg 51%
    08:00 +14°C° 0 mm 3 mps 745 mmHg 50%
    09:00 +14°C° 0 mm 3 mps 745 mmHg 49%
    10:00 +14°C° 0 mm 3 mps 746 mmHg 48%
    11:00 +14°C° 0 mm 4 mps 746 mmHg 47%
    12:00 +14°C° 0 mm 4 mps 746 mmHg 44%
    13:00 +15°C° 0 mm 5 mps 746 mmHg 41%
    14:00 +15°C° 0 mm 6 mps 746 mmHg 37%
    15:00 +15°C° 0 mm 6 mps 746 mmHg 37%
    16:00 +15°C° 0 mm 6 mps 746 mmHg 36%
    17:00 +14°C° 0 mm 5 mps 747 mmHg 36%
    18:00 +13°C° 0 mm 5 mps 747 mmHg 40%
    19:00 +12°C° 0 mm 5 mps 748 mmHg 43%
    20:00 +11°C° 0 mm 4 mps 749 mmHg 47%
    21:00 +10°C° 0 mm 4 mps 749 mmHg 47%
    22:00 +9°C° 0 mm 5 mps 749 mmHg 47%
    23:00 +8°C° 0 mm 5 mps 750 mmHg 47%

    26 September, Wednesday

    Time Temperature Precipitation Wind Pressure Humidity
    00:00 +8°C° 0 mm 5 mps 750 mmHg 47%
    01:00 +8°C° 0 mm 6 mps 750 mmHg 47%
    02:00 +7°C° 0 mm 6 mps 750 mmHg 48%
    03:00 +7°C° 0 mm 6 mps 751 mmHg 51%
    04:00 +5°C° 0 mm 6 mps 751 mmHg 54%
    05:00 +5°C° 0 mm 6 mps 751 mmHg 57%
    06:00 +5°C° 0 mm 7 mps 751 mmHg 55%
    07:00 +6°C° 0 mm 7 mps 752 mmHg 54%
    08:00 +7°C° 0 mm 8 mps 752 mmHg 53%
    09:00 +9°C° 0 mm 8 mps 752 mmHg 47%
    10:00 +10°C° 0 mm 8 mps 752 mmHg 42%
    11:00 +12°C° 0 mm 8 mps 752 mmHg 37%
    12:00 +12°C° 0 mm 8 mps 752 mmHg 34%
    13:00 +13°C° 0 mm 8 mps 752 mmHg 31%
    14:00 +15°C° 0 mm 8 mps 752 mmHg 29%
    15:00 +13°C° 0 mm 8 mps 751 mmHg 30%
    16:00 +13°C° 0 mm 8 mps 751 mmHg 30%
    17:00 +12°C° 0 mm 8 mps 751 mmHg 31%
    18:00 +11°C° 0 mm 7 mps 751 mmHg 33%
    19:00 +10°C° 0 mm 6 mps 752 mmHg 36%
    20:00 +9°C° 0 mm 5 mps 752 mmHg 38%
    21:00 +8°C° 0 mm 5 mps 752 mmHg 39%
    22:00 +7°C° 0 mm 5 mps 752 mmHg 40%
    23:00 +7°C° 0 mm 5 mps 752 mmHg 40%

    27 September, Thursday

    Time Temperature Precipitation Wind Pressure Humidity
    00:00 +7°C° 0 mm 5 mps 751 mmHg 40%
    01:00 +6°C° 0 mm 5 mps 751 mmHg 40%
    02:00 +6°C° 0 mm 5 mps 751 mmHg 40%
    03:00 +6°C° 0 mm 4 mps 751 mmHg 42%
    04:00 +5°C° 0 mm 4 mps 750 mmHg 43%
    05:00 +5°C° 0 mm 4 mps 750 mmHg 44%
    06:00 +6°C° 0 mm 4 mps 750 mmHg 42%
    07:00 +7°C° 0 mm 5 mps 750 mmHg 40%
    08:00 +8°C° 0 mm 5 mps 750 mmHg 38%
    09:00 +10°C° 0 mm 5 mps 750 mmHg 37%
    10:00 +13°C° 0 mm 5 mps 750 mmHg 36%
    11:00 +15°C° 0 mm 4 mps 749 mmHg 35%
    12:00 +17°C° 0 mm 4 mps 749 mmHg 33%
    13:00 +18°C° 0 mm 4 mps 748 mmHg 32%
    14:00 +18°C° 0 mm 4 mps 748 mmHg 31%
    15:00 +18°C° 0 mm 4 mps 747 mmHg 33%
    16:00 +18°C° 0 mm 4 mps 747 mmHg 35%
    17:00 +17°C° 0 mm 3 mps 746 mmHg 37%
    18:00 +16°C° 0 mm 3 mps 746 mmHg 45%
    19:00 +13°C° 0 mm 3 mps 746 mmHg 53%
    20:00 +11°C° 0 mm 3 mps 746 mmHg 61%
    21:00 +12°C° 0 mm 2 mps 745 mmHg 65%
    22:00 +12°C° 0 mm 2 mps 745 mmHg 70%
    23:00 +10°C° 0 mm 2 mps 745 mmHg 75%

    28 September, Friday

    Time Temperature Precipitation Wind Pressure Humidity
    00:00 +10°C° 0 mm 2 mps 744 mmHg 76%
    01:00 +10°C° 0 mm 2 mps 744 mmHg 76%
    02:00 +10°C° 0 mm 2 mps 744 mmHg 76%
    03:00 +9°C° 0 mm 2 mps 743 mmHg 76%
    04:00 +9°C° 0 mm 2 mps 743 mmHg 75%
    05:00 +9°C° 0 mm 2 mps 743 mmHg 75%
    06:00 +10°C° 0 mm 2 mps 743 mmHg 69%
    07:00 +13°C° 0 mm 2 mps 743 mmHg 63%
    08:00 +14°C° 0 mm 2 mps 743 mmHg 57%
    09:00 +16°C° 0 mm 3 mps 743 mmHg 52%
    10:00 +18°C° 0 mm 3 mps 743 mmHg 46%
    11:00 +20°C° 0 mm 3 mps 743 mmHg 40%
    12:00 +21°C° 0 mm 4 mps 742 mmHg 38%
    13:00 +21°C° 0 mm 4 mps 742 mmHg 36%
    14:00 +22°C° 0 mm 4 mps 741 mmHg 33%
    15:00 +21°C° 0 mm 4 mps 741 mmHg 36%
    16:00 +21°C° 0 mm 4 mps 741 mmHg 39%
    17:00 +20°C° 0 mm 3 mps 740 mmHg 42%
    18:00 +18°C° 0 mm 3 mps 740 mmHg 49%
    19:00 +17°C° 0 mm 3 mps 741 mmHg 56%
    20:00 +15°C° 0 mm 2 mps 741 mmHg 64%
    21:00 +15°C° 0 mm 2 mps 741 mmHg 66%
    22:00 +14°C° 0 mm 2 mps 741 mmHg 68%
    23:00 +14°C° 0 mm 1 mps 741 mmHg 70%
    Show more